Voltar ao catálogo

FENGYUN 1C DEB

AtivoPO
NORAD 37593·DEBRIS·🇨🇳 China

Lançado May 10, 1999 de Taiyuan Satellite Launch Center

Loading…

Próximas Passagens (próximas 24 horas)

TLE

EnvelhecendoSource: Space-Track

Época: Sep 5, 2026, 13:14 UTC

1 37593U 99025EKM 26248.55181777  .00001801  00000-0  53617-3 0  9990
2 37593  98.9975 143.5672 0148041  52.2708  67.2978 14.38305098899541

Acompanhe FENGYUN 1C DEB em tempo real com AllMySat

Download on the App Store